FW3304 Weather Reports


Display with metric or nautical units.
time (UTC)temp
F
wind
direction
speed
MPH
gust
MPH
rain 1hr
in
rain 24hr
in
rain mn
in
humidity
%
barometer
mb
20260508153035 63 164 2.0 10.0 0.00 0.00 0.00 65 1015.9
20260508153016 63 188 4.0 11.0 0.00 0.00 0.00 65 1017.5
20260508151536 63 171 4.0 9.0 0.00 0.00 0.00 65 1016.1
20260508150033 62 172 3.0 6.0 0.00 0.00 0.00 66 1016.1
20260508150021 62 184 3.0 12.0 0.00 0.00 0.00 66 1017.7
20260508144525 61 186 4.0 9.0 0.00 0.00 0.00 67 1016.2
20260508143024 60 181 4.0 9.0 0.00 0.00 0.00 68 1016.3
20260508143016 59 201 4.0 12.0 0.00 0.00 0.00 68 1017.9
20260508141517 58 186 5.0 12.0 0.00 0.00 0.00 70 1016.5
20260508140016 58 179 3.0 11.0 0.00 0.00 0.00 74 1018.1
20260508140013 58 203 4.0 8.0 0.00 0.00 0.00 74 1016.6
20260508134512 56 165 2.0 6.0 0.00 0.00 0.00 77 1016.7
20260508133016 55 189 3.0 11.0 0.00 0.00 0.00 78 1018.1
20260508133006 55 168 5.0 10.0 0.00 0.00 0.00 78 1016.7
20260508131502 53 188 2.0 6.0 0.00 0.00 0.00 83 1016.8
20260508130058 52 169 3.0 9.0 0.00 0.00 0.00 84 1016.8
20260508130035 52 173 3.0 9.0 0.00 0.00 0.00 84 1018.2
20260508124559 51 174 3.0 7.0 0.00 0.00 0.00 89 1016.7
20260508123051 49 163 2.0 5.0 0.00 0.00 0.00 95 1016.6
20260508123015 49 166 2.0 7.0 0.00 0.00 0.00 95 1018.2
20260508121545 48 191 2.0 5.0 0.00 0.00 0.00 97 1016.6
20260508120041 46 148 0.0 3.0 0.00 0.00 0.00 97 1016.4
20260508120015 46 124 0.0 3.0 0.00 0.00 0.00 97 1017.8
20260508114539 44 115 1.0 3.0 0.00 0.00 0.00 97 1016.3
20260508113048 42 88 0.0 2.0 0.00 0.00 0.00 96 1016.2
20260508113020 42 91 0.0 3.0 0.00 0.00 0.00 96 1017.4
20260508111532 41 87 0.0 0.0 0.00 0.00 0.00 95 1015.9
20260508110031 40 87 0.0 3.0 0.00 0.00 0.00 95 1015.7
20260508110015 40 91 0.0 3.0 0.00 0.00 0.00 95 1017.0
20260508104529 40 87 0.0 0.0 0.00 0.00 0.00 94 1015.7
20260508103033 40 87 0.0 0.0 0.00 0.00 0.00 95 1015.8
20260508103015 40 0.0 0.0 0.00 0.00 0.00 95 1016.8
20260508101530 40 86 0.0 0.0 0.00 0.00 0.00 94 1015.6
20260508100024 41 86 0.0 0.0 0.00 0.01 0.00 94 1015.4
20260508100015 41 0.0 0.0 0.00 0.00 0.00 94 1016.9
20260508094522 41 86 0.0 0.0 0.00 0.01 0.00 94 1015.5
20260508093035 41 0.0 2.0 0.00 0.01 0.00 94 1016.7
20260508093022 41 86 0.0 0.0 0.00 0.01 0.00 94 1015.3
20260508091533 41 86 0.0 0.0 0.00 0.01 0.00 94 1015.2
20260508090030 42 86 0.0 0.0 0.00 0.01 0.00 94 1015.2
20260508090016 42 90 0.0 2.0 0.00 0.01 0.00 94 1016.6
20260508084517 42 86 0.0 2.0 0.00 0.01 0.00 94 1015.3
20260508083015 42 90 0.0 2.0 0.00 0.01 0.00 93 1016.6
20260508081513 42 86 0.0 2.0 0.00 0.01 0.00 93 1015.4
20260508080020 43 0.0 0.0 0.00 0.01 0.00 93 1016.7
20260508080010 43 86 0.0 0.0 0.00 0.01 0.00 93 1015.5
20260508074508 43 86 0.0 0.0 0.00 0.01 0.00 93 1015.7
20260508073015 43 0.0 0.0 0.00 0.01 0.00 93 1017.1
20260508073008 43 86 0.0 0.0 0.00 0.01 0.00 93 1015.8
20260508071520 44 86 0.0 0.0 0.00 0.01 0.00 93 1015.8
20260508070055 44 0.0 0.0 0.00 0.01 0.00 93 1017.2
20260508070004 44 86 0.0 0.0 0.00 0.01 0.00 93 1016.0
20260508064502 44 86 0.0 0.0 0.00 0.01 0.00 93 1016.0
20260508063015 44 0.0 0.0 0.00 0.01 0.00 93 1017.3
20260508063002 44 86 0.0 0.0 0.00 0.01 0.00 93 1016.1
20260508061604 44 86 0.0 0.0 0.00 0.01 0.00 92 1016.1
20260508060100 44 86 0.0 0.0 0.00 0.01 0.00 92 1016.2
20260508060015 44 0.0 0.0 0.00 0.01 0.00 92 1017.5
20260508054557 45 85 0.0 0.0 0.00 0.01 0.00 92 1016.3
20260508053056 45 85 0.0 0.0 0.00 0.01 0.00 92 1016.4
20260508053017 45 0.0 0.0 0.00 0.01 0.00 92 1017.7
20260508051554 45 85 0.0 0.0 0.00 0.01 0.00 92 1016.2
20260508050052 45 85 0.0 0.0 0.00 0.01 0.01 91 1016.1
20260508050017 45 0.0 0.0 0.00 0.01 0.01 91 1017.3
20260508044551 45 85 0.0 0.0 0.00 0.01 0.01 91 1016.1
20260508043101 46 85 0.0 0.0 0.00 0.01 0.01 91 1016.1
20260508043021 46 0.0 0.0 0.00 0.01 0.01 91 1017.5
20260508041551 46 85 0.0 0.0 0.00 0.01 0.01 90 1016.1
20260508040051 46 85 0.0 0.0 0.00 0.01 0.01 89 1016.3
20260508040037 46 0.0 0.0 0.00 0.01 0.01 89 1017.6
20260508034550 47 85 0.0 0.0 0.00 0.01 0.01 89 1016.3
20260508033050 47 85 0.0 0.0 0.00 0.01 0.01 88 1016.4
20260508033017 47 0.0 1.0 0.00 0.01 0.01 88 1017.7
20260508031549 48 85 0.0 0.0 0.00 0.01 0.01 88 1016.3
20260508030048 48 85 0.0 1.0 0.00 0.01 0.01 86 1016.2
20260508030017 48 89 0.0 1.0 0.00 0.01 0.01 86 1017.5
20260508024547 49 85 0.0 0.0 0.00 0.01 0.01 85 1016.0
20260508023047 49 85 0.0 0.0 0.00 0.01 0.01 84 1015.8
20260508023017 49 0.0 0.0 0.00 0.01 0.01 84 1017.2
20260508021550 50 85 0.0 0.0 0.00 0.01 0.01 83 1015.6
20260508020046 51 85 0.0 0.0 0.00 0.01 0.01 81 1015.7
20260508020017 51 0.0 0.0 0.00 0.01 0.01 81 1017.1
20260508014545 53 85 0.0 0.0 0.00 0.01 0.01 80 1015.7
20260508013046 54 85 0.0 0.0 0.00 0.01 0.01 77 1015.5
20260508013037 54 0.0 1.0 0.00 0.01 0.01 77 1017.0
20260508011545 56 85 0.0 0.0 0.00 0.01 0.01 73 1015.4
20260508010044 57 85 0.0 0.0 0.00 0.01 0.01 68 1015.3
20260508010021 57 88 0.0 3.0 0.00 0.01 0.01 68 1016.9
20260508004545 59 85 0.0 0.0 0.00 0.01 0.01 65 1015.2
20260508003043 61 82 0.0 2.0 0.00 0.01 0.01 59 1015.0
20260508003037 61 63 0.0 4.0 0.00 0.01 0.01 59 1016.4
20260508001542 62 82 0.0 3.0 0.00 0.01 0.01 56 1015.0
20260508000044 64 33 1.0 4.0 0.00 0.01 0.01 52 1014.8
20260508000017 64 3 0.0 4.0 0.00 0.01 0.01 52 1016.2
20260507234543 65 323 0.0 2.0 0.00 0.01 0.01 52 1014.7
20260507233041 65 314 0.0 3.0 0.00 0.01 0.01 50 1014.7
20260507233016 65 323 0.0 8.0 0.00 0.01 0.01 49 1016.3
20260507231546 65 343 0.0 4.0 0.00 0.01 0.01 47 1014.7
20260507230039 64 340 2.0 5.0 0.00 0.04 0.01 50 1014.8
20260507230016 64 34 2.0 9.0 0.00 0.01 0.01 50 1016.2
20260507224538 65 357 2.0 6.0 0.00 0.04 0.01 47 1014.8
20260507223036 65 349 2.0 10.0 0.00 0.03 0.01 45 1016.3
20260507221535 65 27 3.0 7.0 0.00 0.04 0.01 49 1015.0
20260507220035 64 33 2.0 6.0 0.00 0.06 0.01 48 1015.0
20260507220017 64 55 3.0 11.0 0.00 0.05 0.01 48 1016.6
20260507214538 65 60 6.0 9.0 0.00 0.06 0.01 46 1014.9
20260507213032 65 50 3.0 7.0 0.00 0.06 0.01 47 1014.8
20260507213022 65 17 3.0 11.0 0.00 0.05 0.01 47 1016.3
20260507211531 64 46 5.0 10.0 0.00 0.06 0.01 49 1014.8
20260507210046 65 13 1.0 9.0 0.00 0.07 0.01 46 1015.0
20260507210016 65 305 2.0 10.0 0.00 0.06 0.01 46 1016.5
20260507204526 64 203 0.0 5.0 0.00 0.07 0.01 48 1015.0
20260507203026 64 240 4.0 7.0 0.00 0.07 0.01 49 1015.1
20260507203016 64 297 3.0 13.0 0.00 0.06 0.01 49 1016.7
20260507201525 64 340 3.0 9.0 0.00 0.07 0.01 50 1015.3
20260507200027 63 1 3.0 7.0 0.00 0.09 0.01 51 1015.3
20260507200016 63 16 4.0 16.0 0.00 0.08 0.01 51 1017.0
20260507194526 63 31 8.0 11.0 0.00 0.09 0.01 52 1015.4
20260507193023 64 328 1.0 8.0 0.00 0.09 0.01 53 1015.5
20260507193016 64 334 4.0 16.0 0.00 0.09 0.01 53 1017.2
20260507191521 64 348 5.0 9.0 0.00 0.09 0.01 53 1015.6
20260507190036 63 334 3.0 13.0 0.00 0.09 0.01 55 1017.2
20260507190017 63 359 3.0 9.0 0.00 0.09 0.01 55 1015.7
20260507184518 62 113 1.0 7.0 0.00 0.09 0.01 53 1015.8
20260507183016 63 6 5.0 14.0 0.00 0.09 0.01 52 1017.5
20260507181514 62 54 6.0 12.0 0.00 0.09 0.01 53 1016.0
20260507180040 62 344 4.0 14.0 0.00 0.09 0.01 55 1017.5
20260507180014 62 360 4.0 9.0 0.00 0.09 0.01 55 1016.1
20260507174513 62 359 5.0 9.0 0.00 0.09 0.01 51 1016.3
20260507173016 61 326 4.0 12.0 0.00 0.09 0.01 55 1018.0
20260507173008 61 290 5.0 9.0 0.00 0.09 0.01 51 1016.5
20260507171506 61 326 2.0 9.0 0.00 0.09 0.01 54 1016.7
20260507170016 61 13 3.0 12.0 0.00 0.09 0.01 58 1018.2
20260507170005 61 306 4.0 11.0 0.00 0.09 0.01 58 1016.7
20260507164503 61 343 5.0 8.0 0.00 0.09 0.01 56 1016.9
20260507163107 60 358 3.0 9.0 0.00 0.09 0.01 57 1017.1
20260507163016 60 16 4.0 12.0 0.00 0.09 0.01 57 1018.7
20260507161559 60 22 4.0 9.0 0.00 0.09 0.01 55 1017.3
20260507160056 60 63 3.0 7.0 0.00 0.09 0.01 59 1017.3
20260507160016 59 3 3.0 10.0 0.00 0.09 0.01 62 1018.8
20260507154559 60 27 3.0 8.0 0.00 0.09 0.01 63 1017.2